User: anonymous   Login
Location: Unspecified
(0.0000°N, 0.0000°E)
Time: 22:23:11
(UTC+00:00)
Language:

STARLINK-3526 - Orbit

View from above orbital plane
View from above orbital plane
View from above satellite
View from above satellite

Ground track
Ground track

The orbit is defined by the following mean orbital elements,

1 51720U          26145.55687909 +.00000000 +00000-0 -90917-4 0 00006
2 51720  53.2136 344.0203 0001365  89.3979 270.7169 15.08847705    00
Epoch (UTC): 25 May 2026 13:21:54
Eccentricity: 0.0001365
inclination: 53.2136°
perigee height: 539 km
apogee height: 541 km
right ascension of ascending node: 344.0203°
argument of perigee: 89.3979°
revolutions per day: 15.08847705
mean anomaly at epoch: 270.7169°

The dashed part of the orbit path shows where the satellite is in the earth's shadow,  

DLR